User: anonymous   Login
Location: Brno
(49.2000°N, 16.6330°E)
Time: 14:57:04
(UTC+02:00)
Language:

Cosmos 1459 Rocket - Orbit

View from above orbital plane
View from above orbital plane
View from above satellite
View from above satellite

Ground track
Ground track

The orbit data is extracted from the following two-line orbital elements,

1 14059U 83042B   15088.13464454  .00000182  00000-0  16313-3 0  9997
2 14059 082.9704 303.8841 0043245 026.3011 101.0739 13.78503629604015
Epoch (UTC): 29 March 2015 03:13:53
Eccentricity: 0.0043245
inclination: 82.9704°
perigee height: 937 km
apogee height: 1001 km
right ascension of ascending node: 303.8841°
argument of perigee: 26.3011°
revolutions per day: 13.78503629
mean anomaly at epoch: 101.0739°
orbit number at epoch: 60401

The dashed part of the orbit path shows where the satellite is in the earth's shadow,  

DLR